Location: Marcé
(47.5801°N, 0.3280°W)
Time: 01:18:23
(UTC+01:00)

deb Explorer IX - All Passes

Search period start: 30 November 2021 00:00
Search period end: 10 December 2021 00:00
Orbit: 546 x 1086 km, 38.8° (Epoch: 29 November)

Date Brightness Start Highest point End Pass type
(mag) Time Alt. Az. Time Alt. Az. Time Alt. Az.
30 Nov - 12:49:01 10° SSW 12:51:30 15° SSE 12:53:55 10° SE daylight
30 Nov - 14:33:58 10° SW 14:37:18 24° S 14:40:40 10° ESE daylight
30 Nov - 16:20:12 10° WSW 16:23:10 19° SSW 16:26:17 10° SSE daylight
01 Dec - 12:24:05 10° SSW 12:26:38 15° SSE 12:29:07 10° SE daylight
01 Dec - 14:09:06 10° SW 14:12:28 24° S 14:15:48 10° ESE daylight
01 Dec - 15:55:23 10° WSW 15:58:20 19° SSW 16:01:21 10° SSE daylight
02 Dec - 11:59:06 10° SSW 12:01:46 16° SSE 12:04:20 10° ESE daylight
02 Dec - 13:44:12 10° SW 13:47:37 24° S 13:50:57 10° ESE daylight
02 Dec - 15:30:33 10° WSW 15:33:28 19° SSW 15:36:26 10° SSE daylight
03 Dec - 11:34:06 10° SSW 11:36:55 16° SSE 11:39:34 10° ESE daylight
03 Dec - 13:19:16 10° SW 13:22:46 24° S 13:26:07 10° ESE daylight
03 Dec - 15:05:40 10° WSW 15:08:37 19° SSW 15:11:33 10° SSE daylight
04 Dec - 11:09:04 10° SSW 11:12:01 17° SSE 11:14:47 10° ESE daylight
04 Dec - 12:54:18 10° SW 12:57:54 25° S 13:01:18 10° ESE daylight
04 Dec - 14:40:46 10° WSW 14:43:45 19° SSW 14:46:41 10° SSE daylight
05 Dec - 10:43:59 10° SSW 10:47:06 17° SSE 10:50:01 10° ESE daylight
05 Dec - 12:29:18 10° SW 12:33:01 25° S 12:36:29 10° ESE daylight
05 Dec - 14:15:49 10° WSW 14:18:53 19° SSW 14:21:50 10° SSE daylight
06 Dec - 10:18:52 10° SSW 10:22:11 18° SSE 10:25:15 10° ESE daylight
06 Dec - 12:04:16 10° SW 12:08:08 26° S 12:11:41 10° ESE daylight
06 Dec - 13:50:51 10° WSW 13:53:59 20° SSW 13:57:01 10° SSE daylight
07 Dec - 09:53:44 10° SSW 09:57:15 19° SSE 10:00:29 10° ESE daylight
07 Dec - 11:39:12 10° SW 11:43:13 27° S 11:46:52 10° ESE daylight
07 Dec - 13:25:50 10° WSW 13:29:06 20° SSW 13:32:11 10° SSE daylight
08 Dec - 09:28:34 10° SSW 09:32:18 19° SSE 09:35:42 10° ESE daylight
08 Dec - 11:14:07 10° SW 11:18:17 28° S 11:22:04 10° ESE daylight
08 Dec - 13:00:47 10° WSW 13:04:12 21° SSW 13:07:23 10° SSE daylight
09 Dec - 09:03:23 10° SSW 09:07:19 20° SSE 09:10:54 10° ESE daylight
09 Dec - 10:48:59 10° WSW 10:53:21 28° S 10:57:16 10° ESE daylight
09 Dec - 12:35:42 10° WSW 12:39:16 22° SSW 12:42:35 10° SE daylight
